Regional Weather Roundup
Issued by NWS

Home | Current Version | Previous Version | Graphics & Text | Print | Product List | Glossary On
Versions: 1 2 3 4 5 6 7 8 9 10 11 12 13 14 15 16 17 18 19 20 21 22 23 24 25 26 27 28 29 30 31 32 33 34 35 36 37 38 39 40 41 42 43 44 45 46 47 48 49 50
000
ASUS43 KDTX 010301
RWRMI
MICHIGAN HOURLY REGIONAL WEATHER ROUNDUP
NATIONAL WEATHER SERVICE DETROIT/PONTIAC MI
1100 PM EDT FRI JUL 31 2015

NOTE: "FAIR" INDICATES FEW OR NO CLOUDS BELOW 12,000 FEET WITH NO
SIGNIFICANT WEATHER AND/OR OBSTRUCTION TO VISIBILITY.

MIZ047>049-052>055-059>063-066>070-074>076-081>083-010400-
SOUTHEAST LOWER MICHIGAN

CITY           SKY/WX    TMP DP  RH WIND       PRES   REMARKS
ADRIAN         CLEAR     67  53  61 NW6       29.92R
ALMA           LGT RAIN  65  60  83 CALM      29.91R
ANN ARBOR      CLEAR     65  52  62 W8        29.90R
BAD AXE        MOCLDY    66  57  73 NW5       29.87R
CARO           CLOUDY    64  57  77 W3        29.87S
DETROIT CITY   CLEAR     75  50  41 W5        29.87R
DETROIT        CLEAR     73  50  44 W9        29.89R
FLINT          CLEAR     70  54  56 W5        29.89R
GROSSE ILE     CLEAR     72  52  49 W6        29.87S
HILLSDALE      CLEAR     66  52  61 W3        29.94S
HOWELL         CLEAR     66  53  61 W5        29.90R

CITY           SKY/WX    TMP DP  RH WIND       PRES   REMARKS
JACKSON        CLEAR     68  51  54 W7        29.92R
LAMBERTVILLE   CLEAR     71  54  55 CALM      29.92R
LANSING        CLEAR     69  53  56 W7        29.91R
LAPEER         FAIR      69  54  60 NW9       29.89R
MASON          CLEAR     66  51  58 W3        29.91S
MONROE         CLEAR     68  55  62 W6        29.89R
MT. CLEMENS    CLEAR     74  53  48 W9        29.85R
PONTIAC        PTCLDY    71  55  56 W10       29.88R
PORT HOPE        N/A     65  60  84 W5        29.84R
PORT HURON     FAIR      64  59  82 CALM      29.86R
TRI CITIES     MOCLDY    68  57  68 W6        29.89R
MIDLAND        CLOUDY    63  62  96 CALM      29.88R
TROY           CLEAR     75  53  45 W8        29.89R
SAGINAW HB     PTCLDY    66  55  68 W5        29.88R
$$
MIZ043>046-050>051-056>058-064>065-071>073-077>080-010400-
SOUTHWEST LOWER MICHIGAN

CITY           SKY/WX    TMP DP  RH WIND       PRES   REMARKS
BATTLE CREEK   CLEAR     67  52  58 W7        29.94R
BENTON HARBOR  CLEAR     64  59  83 CALM      29.95R
BIG RAPIDS     PTCLDY    62  60  94 CALM      29.91R
COLDWATER      CLEAR     65  52  64 W5        29.95R
FREMONT        CLOUDY    66  57  74 CALM      29.91R
HOLLAND        PTCLDY    67  59  75 W8        29.94R
GRAND RAPIDS   PTCLDY    69  55  60 W7        29.92R
IONIA          FAIR      67  53  60 W7        29.90S
KALAMAZOO      CLEAR     65  53  65 W5        29.95R
LUDINGTON      MOCLDY    64  58  79 CALM      29.91R
MARSHALL       CLEAR     64  52  64 W3        29.93R
MOUNT PLEASANT CLOUDY    67  59  76 W5        29.89R
MUSKEGON       PTCLDY    72  59  63 W5        29.92R
SOUTH HAVEN    CLEAR     63  60  89 CALM      29.94S
$$
MIZ016>042-010400-
NORTHERN LOWER MICHIGAN

CITY           SKY/WX    TMP DP  RH WIND       PRES   REMARKS
ALPENA         CLEAR     62  56  80 W3        29.85R
BEAVER ISLAND  CLEAR     63  54  71 CALM      29.86S
BELLAIRE       PTCLDY    60  55  83 CALM      29.87S
CADILLAC       CLEAR     57  54  88 CALM      29.91R
CHARLEVOIX     CLEAR     64  60  86 CALM      29.89S
FRANKFORT      CLEAR     59  57  92 CALM      29.89R
GAYLORD        PTCLDY    62  55  77 CALM      29.88R
GRAYLING       CLEAR     59  52  79 CALM      29.89R
HARBOR SPRINGS CLEAR     64  55  72 NW6       29.86S
HOUGHTON LAKE  MOCLDY    64  58  80 NW5       29.90R
MANISTEE       CLEAR     61  55  82 CALM      29.91R
OSCODA         PTCLDY    62  57  84 W6        29.85R
PELLSTON       CLEAR     59  52  77 CALM      29.86R
ROGERS CITY    CLEAR     62  58  84 W3        29.86R
TRAVERSE CITY  CLEAR     68  56  65 CALM      29.86R
$$
MIZ007>008-015-010400-
EASTERN UPPER MICHIGAN

CITY           SKY/WX    TMP DP  RH WIND       PRES   REMARKS
KINROSS        CLEAR     61  55  82 W5        29.84R
MACKINAC ISLAN CLEAR     63  53  70 W6        29.85R
NEWBERRY       CLEAR     59  53  80 SW3       29.84S
S. S. MARIE    PTCLDY    58  53  84 NW6       29.83R
MUNISING         N/A     61  54  77 S5        29.84S
$$
MIZ004>006-011>014-085-010400-
CENTRAL UPPER MICHIGAN

CITY           SKY/WX    TMP DP  RH WIND       PRES   REMARKS
ESCANABA       PTCLDY    63  52  67 W5        29.86S
MENOMINEE      PTCLDY    68  50  52 CALM      29.90R
SAWYER-GWINN   CLEAR     63  50  63 W6        29.87S
$$
MIZ001>003-009>011-084-010400-
WESTERN UPPER MICHIGAN

CITY           SKY/WX    TMP DP  RH WIND       PRES   REMARKS
IRON MOUNTAIN  CLEAR     64  50  60 W5        29.89R
HOUGHTON       CLEAR     63  54  72 W13       29.85S
COPPER HARBOR    N/A     65  53  65 VRB6      29.81S
IRONWOOD       CLEAR     61  57  88 SW5       29.90R
$$

ABBREVIATIONS USED IN REMARKS
   TC - TEMPERATURE IN CELSIUS
  WCI - WIND CHILL INDEX
   HX - HEAT INDEX
  VSB - VISIBILITY




USA.gov is the U.S. government's official web portal to all federal, state and local government web resources and services.